Airfield :
LOGIN :

Register | Disclaimer

   EN    FR    IT 

 










Legend :    VFR   Marginal VFR   IFR   Intensive IFR   Very Intensive IFR
Visi :
Ceiling :
>= 8 km
>= 3000ft
5 to 8 km
1000 to 3000 ft
1500m to 5 km
500 to 1000 ft
800 to 1500m
200 to 500 ft
< 800m
< 200 ft
Symbols :   Thunderstorms  Fog  Heavy snow  Heavy precipitations  Wind > 20 kt
SIGMETs :     Misc.  Thunderstorms  Icing  Turbulence  Mountain Waves  Volcanic Ashes







- Airport Elevation : 75 ft
- IATA code : MRH


EGYM - RAF Marham

CURRENT METAR :
  • 180550Z 31005KT CAVOK 01/M00 Q1025 BLU NOSIG

EXPIRED METARs :
  • 180450Z 33005KT CAVOK 01/M00 Q1024 BLU
  • 180350Z 33008KT CAVOK 02/M00 Q1023 BLU

TAF TAF EGYM
Valid from the 18 at 06:00 until the 18 at 15:00 UTC


180439Z 1806/1815 32008KT 9999 FEW010
TEMPO 1806/1811 7000 HZ
PROB30
TEMPO 1807/1810 3000 BR
No reported NOTAMs for that airfield.



MET'MAP, your aeronautical weather chart ! - Copyright ORBIFLY December 2007 - Disclaimer

ORBIFLY MET'MAP TEAM :

Programming & Development : Alexandra Zaïnal
Concept & Development : Baudouin d'Aumeries
Co-Development & Prog : Marc-Olivier Méhu
Technical & hardware support : Manuel Goepfert

Contact : metmap@orbifly.com




SOURCES & CREDITS :

   NOAA